• In Austria
  • List of Countries
  • For 7 days
  • Water Temperature
  • Satellite Maps
  • Weather Map
  • News
  • Weather Widgets
  • user-avatar
    Login

    Hourly Weather Prutz

    Today, 12 December, Tuesday

    Time Temperature Precipitation Wind Pressure Humidity
    00:00 -1°C° 2.9 mm 2 mps 616 mmHg 96%
    01:00 -1°C° 0 mm 3 mps 617 mmHg 96%
    02:00 -1°C° 2 mm 2 mps 618 mmHg 96%
    03:00 -1°C° 2 mm 2 mps 618 mmHg 96%
    04:00 -1°C° 2 mm 2 mps 619 mmHg 96%
    05:00 -1°C° 1.1 mm 2 mps 620 mmHg 96%
    06:00 -2°C° 1.1 mm 2 mps 621 mmHg 96%
    07:00 -2°C° 0 mm 3 mps 621 mmHg 96%
    08:00 -2°C° 0.4 mm 3 mps 622 mmHg 95%
    09:00 -3°C° 0.4 mm 2 mps 623 mmHg 95%
    10:00 -3°C° 0.4 mm 2 mps 624 mmHg 94%
    11:00 -3°C° 0.4 mm 2 mps 625 mmHg 93%
    12:00 -3°C° 0.4 mm 2 mps 625 mmHg 92%
    13:00 -3°C° 0 mm 2 mps 626 mmHg 93%
    14:00 -3°C° 0.4 mm 2 mps 626 mmHg 93%
    15:00 -4°C° 0.4 mm 2 mps 626 mmHg 94%
    16:00 -3°C° 0.4 mm 1 mps 626 mmHg 95%
    17:00 -3°C° 0.5 mm 1 mps 627 mmHg 95%
    18:00 -4°C° 0.5 mm 1 mps 627 mmHg 95%
    19:00 -6°C° 0.5 mm 1 mps 627 mmHg 96%
    20:00 -6°C° 0.3 mm 1 mps 628 mmHg 95%
    21:00 -7°C° 0.3 mm 2 mps 628 mmHg 95%
    22:00 -8°C° 0.3 mm 2 mps 629 mmHg 95%
    23:00 -8°C° 0.2 mm 2 mps 629 mmHg 94%

    Tomorrow, 13 December, Wednesday

    Time Temperature Precipitation Wind Pressure Humidity
    00:00 -8°C° 0.2 mm 1 mps 629 mmHg 94%
    01:00 -8°C° 0.2 mm 1 mps 629 mmHg 93%
    02:00 -9°C° 0 mm 1 mps 629 mmHg 92%
    03:00 -10°C° 0 mm 1 mps 628 mmHg 91%
    04:00 -11°C° 0 mm 1 mps 628 mmHg 90%
    05:00 -12°C° 0 mm 1 mps 628 mmHg 87%
    06:00 -12°C° 0 mm 1 mps 628 mmHg 84%
    07:00 -12°C° 0 mm 1 mps 628 mmHg 82%
    08:00 -10°C° 0 mm 1 mps 629 mmHg 79%
    09:00 -9°C° 0 mm 1 mps 629 mmHg 77%
    10:00 -7°C° 0 mm 1 mps 630 mmHg 75%
    11:00 -6°C° 0 mm 1 mps 630 mmHg 74%
    12:00 -5°C° 0 mm 2 mps 629 mmHg 73%
    13:00 -3°C° 0 mm 2 mps 629 mmHg 72%
    14:00 -4°C° 0 mm 2 mps 628 mmHg 74%
    15:00 -5°C° 0 mm 2 mps 628 mmHg 77%
    16:00 -7°C° 0 mm 3 mps 627 mmHg 80%
    17:00 -7°C° 0 mm 3 mps 627 mmHg 79%
    18:00 -8°C° 0 mm 3 mps 626 mmHg 79%
    19:00 -8°C° 0 mm 3 mps 626 mmHg 78%
    20:00 -8°C° 0 mm 3 mps 626 mmHg 77%
    21:00 -7°C° 0 mm 3 mps 625 mmHg 76%
    22:00 -8°C° 0 mm 4 mps 625 mmHg 75%
    23:00 -8°C° 0.1 mm 4 mps 625 mmHg 75%

    Day after tomorrow, 14 December, Thursday

    Time Temperature Precipitation Wind Pressure Humidity
    00:00 -7°C° 0.1 mm 4 mps 625 mmHg 75%
    01:00 -7°C° 0.1 mm 4 mps 624 mmHg 75%
    02:00 -7°C° 0 mm 4 mps 624 mmHg 74%
    03:00 -5°C° 0 mm 4 mps 624 mmHg 74%
    04:00 -5°C° 0 mm 4 mps 624 mmHg 74%
    05:00 -5°C° 0.2 mm 3 mps 624 mmHg 77%
    06:00 -5°C° 0.2 mm 3 mps 624 mmHg 80%
    07:00 -5°C° 0.2 mm 3 mps 625 mmHg 83%
    08:00 -5°C° 0.2 mm 3 mps 625 mmHg 85%
    09:00 -3°C° 0.2 mm 2 mps 625 mmHg 87%
    10:00 -3°C° 0.2 mm 2 mps 625 mmHg 88%
    11:00 -2°C° 0.2 mm 2 mps 625 mmHg 89%
    12:00 -2°C° 0.2 mm 2 mps 625 mmHg 89%
    13:00 -1°C° 0.2 mm 2 mps 625 mmHg 89%
    14:00 -2°C° 0.1 mm 2 mps 624 mmHg 89%
    15:00 -3°C° 0.1 mm 2 mps 623 mmHg 89%
    16:00 -3°C° 0.1 mm 2 mps 623 mmHg 88%
    17:00 -4°C° 0 mm 2 mps 622 mmHg 87%
    18:00 -6°C° 0 mm 3 mps 622 mmHg 85%
    19:00 -7°C° 0 mm 3 mps 621 mmHg 83%
    20:00 -7°C° 0 mm 3 mps 621 mmHg 80%
    21:00 -8°C° 0 mm 4 mps 620 mmHg 78%
    22:00 -8°C° 0 mm 4 mps 620 mmHg 76%
    23:00 -8°C° 0 mm 4 mps 619 mmHg 76%

    15 December, Friday

    Time Temperature Precipitation Wind Pressure Humidity
    00:00 -7°C° 0 mm 4 mps 619 mmHg 77%
    01:00 -7°C° 0 mm 4 mps 619 mmHg 78%
    02:00 -7°C° 0.9 mm 4 mps 619 mmHg 84%
    03:00 -6°C° 0.9 mm 3 mps 619 mmHg 89%
    04:00 -5°C° 0.9 mm 2 mps 619 mmHg 95%
    05:00 -5°C° 1 mm 2 mps 619 mmHg 95%
    06:00 -5°C° 1 mm 2 mps 619 mmHg 95%
    07:00 -6°C° 1 mm 2 mps 619 mmHg 95%
    08:00 -6°C° 0.5 mm 2 mps 619 mmHg 94%
    09:00 -6°C° 0.5 mm 2 mps 619 mmHg 93%
    10:00 -6°C° 0.5 mm 2 mps 619 mmHg 92%
    11:00 -5°C° 0.2 mm 2 mps 619 mmHg 90%
    12:00 -5°C° 0.2 mm 2 mps 619 mmHg 88%
    13:00 -4°C° 0.2 mm 2 mps 619 mmHg 86%
    14:00 -5°C° 0.1 mm 2 mps 619 mmHg 87%
    15:00 -4°C° 0.1 mm 1 mps 619 mmHg 88%
    16:00 -6°C° 0.1 mm 1 mps 618 mmHg 90%
    17:00 -7°C° 0 mm 1 mps 618 mmHg 87%
    18:00 -9°C° 0 mm 2 mps 618 mmHg 85%
    19:00 -10°C° 0 mm 2 mps 618 mmHg 83%
    20:00 -10°C° 0.1 mm 2 mps 619 mmHg 82%
    21:00 -10°C° 0.1 mm 2 mps 619 mmHg 82%
    22:00 -10°C° 0.1 mm 2 mps 620 mmHg 81%
    23:00 -9°C° 0.4 mm 2 mps 621 mmHg 85%

    16 December, Saturday

    Time Temperature Precipitation Wind Pressure Humidity
    00:00 -9°C° 0.4 mm 2 mps 621 mmHg 88%
    01:00 -8°C° 0.4 mm 2 mps 622 mmHg 91%
    02:00 -9°C° 0.2 mm 2 mps 622 mmHg 91%
    03:00 -9°C° 0.2 mm 2 mps 623 mmHg 91%
    04:00 -8°C° 0.2 mm 1 mps 623 mmHg 90%
    05:00 -9°C° 0.1 mm 1 mps 623 mmHg 90%
    06:00 -9°C° 0.1 mm 1 mps 624 mmHg 89%
    07:00 -9°C° 0.1 mm 1 mps 624 mmHg 88%
    08:00 -9°C° 0 mm 1 mps 624 mmHg 87%
    09:00 -8°C° 0 mm 1 mps 625 mmHg 86%
    10:00 -8°C° 0 mm 1 mps 626 mmHg 85%
    11:00 -7°C° 0 mm 1 mps 626 mmHg 82%
    12:00 -6°C° 0 mm 1 mps 626 mmHg 79%
    13:00 -3°C° 0 mm 1 mps 626 mmHg 76%
    14:00 -6°C° 0 mm 1 mps 626 mmHg 80%
    15:00 -7°C° 0 mm 1 mps 626 mmHg 85%
    16:00 -9°C° 0 mm 1 mps 625 mmHg 89%
    17:00 -9°C° 0 mm 1 mps 626 mmHg 90%
    18:00 -10°C° 0 mm 1 mps 626 mmHg 90%
    19:00 -11°C° 0 mm 1 mps 627 mmHg 91%
    20:00 -11°C° 0 mm 1 mps 627 mmHg 90%
    21:00 -10°C° 0 mm 1 mps 627 mmHg 90%
    22:00 -10°C° 0 mm 1 mps 628 mmHg 89%
    23:00 -10°C° 0.1 mm 1 mps 628 mmHg 89%

    17 December, Sunday

    Time Temperature Precipitation Wind Pressure Humidity
    00:00 -10°C° 0.1 mm 1 mps 628 mmHg 89%
    01:00 -10°C° 0.1 mm 1 mps 629 mmHg 89%
    02:00 -10°C° 0.2 mm 1 mps 629 mmHg 90%
    03:00 -10°C° 0.2 mm 1 mps 629 mmHg 91%
    04:00 -9°C° 0.2 mm 1 mps 629 mmHg 92%
    05:00 -9°C° 0.2 mm 1 mps 630 mmHg 93%
    06:00 -10°C° 0.2 mm 2 mps 630 mmHg 94%
    07:00 -10°C° 0.2 mm 2 mps 631 mmHg 94%
    08:00 -10°C° 0.1 mm 2 mps 631 mmHg 94%
    09:00 -9°C° 0.1 mm 2 mps 632 mmHg 93%
    10:00 -9°C° 0.1 mm 2 mps 632 mmHg 92%
    11:00 -8°C° 0.1 mm 2 mps 633 mmHg 90%
    12:00 -8°C° 0.1 mm 2 mps 633 mmHg 88%
    13:00 -8°C° 0.1 mm 2 mps 633 mmHg 86%
    14:00 -8°C° 0.2 mm 2 mps 633 mmHg 88%
    15:00 -9°C° 0.2 mm 2 mps 633 mmHg 91%
    16:00 -9°C° 0.2 mm 2 mps 634 mmHg 93%
    17:00 -10°C° 0.1 mm 2 mps 634 mmHg 94%
    18:00 -12°C° 0.1 mm 2 mps 634 mmHg 95%
    19:00 -10°C° 0.1 mm 1 mps 635 mmHg 95%
    20:00 -11°C° 0.1 mm 1 mps 635 mmHg 95%
    21:00 -12°C° 0.1 mm 1 mps 635 mmHg 94%
    22:00 -12°C° 0.1 mm 1 mps 635 mmHg 94%
    23:00 -13°C° 0 mm 1 mps 635 mmHg 93%
    Show more